Location: Alsip
(41.6689°N, 87.7387°W)
Time: 14:07:12
(UTC+00:00)

Abrixas rocket - Pass Details

Date: 14 July 2020
Orbit: 339 x 347 km, 48.4° (Epoch: 04 August)

Event Time Altitude Azimuth Distance (km) Brightness Sun altitude
Exits shadow 07:38:49 17° 329° (NNW) 977 4.5 -22.5°
Maximum altitude 07:40:14 24° 10° (N) 769 4.3 -22.4°
Drops below altitude 10° 07:42:44 - 69° (ENE) 1,317 5.4 -22.2°
Sets 07:44:52 0° 83° (E) 2,120 6.3 -22.0°
